Location: Bois de la Silve
(44.4667°N, 6.7833°E)
Time: 21:12:48
(UTC+00:00)

Cosmos 1666 - Pass Details

Date: 14 July 2020
Orbit: 497 x 521 km, 82.5° (Epoch: 14 August)

Event Time Altitude Azimuth Distance (km) Brightness Sun altitude
Exits shadow 01:13:11 23° 125° (SE) 1,120 4.3 -20.5°
Maximum altitude 01:14:27 28° 91° (E) 973 4.3 -20.4°
Drops below altitude 10° 01:17:43 10° 31° (NNE) 1,724 6.5 -20.1°
Sets 01:20:01 0° 20° (NNE) 2,610 7.9 -20.0°
